Home > Weather > West Palm Beach > Past weeks

Flag for USA Weather for the Past 2 Weeks in West Palm Beach, Florida, USA

Now
79 °F

Passing clouds.


Feels Like: 79 °F
Forecast: 68 / 81 °F
Wind: 15 mph from Northwest

Location: Palm Beach International Airport

Current Time: May 5, 2016 at 2:05:11 PM

Latest Report: May 5, 2016 at 12:53 PM


Visibility: 10 mi

Pressure: 29.80 "Hg

Humidity: 36%

Dew Point: 50 °F

Location of West Palm BeachLocation

Historic Weather in West Palm Beach — Graph

°F

West Palm Beach Temperature Yesterday

Maximum temperature yesterday: 80 °F (at 12:53 PM)
Minimum temperature yesterday: 67 °F (at 4:53 PM)
Average temperature yesterday: 73 °F

High & Low Weather Summary for the Past Weeks

 TemperatureHumidityPressure
High93 °F (May 3, 2:53 PM)97% (May 4, 4:53 PM)30.11 "Hg (May 4, 4:53 PM)
Low64 °F (May 5, 6:53 AM)36% (May 5, 12:53 PM)29.68 "Hg (May 4, 9:53 PM)
Average78 °F65%29.97 "Hg
* Reported Apr 20 12:53 PM — May 5 12:53 PM, West Palm Beach, Weather by CustomWeather, © 2016

Note: Actual official high and low records may vary slightly from our data, if they occured in-between our weather recording intervals... More about our weather records

Advertising

West Palm Beach Weather History for the Previous 24 Hours

Scroll right to see more
 ConditionsComfort  
Time TempWeatherWind HumidityBarometerVisibility
12:53 PM
Thu, May 5
79 °FPassing clouds.15 mph36%29.80 "Hg10 mi
11:53 AM77 °FSunny.17 mph39%29.82 "Hg10 mi
10:53 AM75 °FSunny.21 mph39%29.82 "Hg10 mi
9:53 AM73 °FSunny.18 mph46%29.82 "Hg10 mi
8:53 AM68 °FSunny.16 mph57%29.80 "Hg10 mi
7:53 AM65 °FPassing clouds.15 mph70%29.78 "Hg10 mi
6:53 AM64 °FPassing clouds.14 mph78%29.75 "Hg10 mi
5:53 AM65 °FClear.12 mph91%29.73 "Hg10 mi
4:53 AM66 °FPassing clouds.12 mph84%29.72 "Hg10 mi
3:53 AM66 °FClear.12 mph87%29.72 "Hg10 mi
2:53 AM67 °FClear.15 mph87%29.72 "Hg10 mi
1:53 AM68 °FClear.12 mph87%29.71 "Hg10 mi
12:53 AM71 °FPassing clouds.14 mph87%29.71 "Hg10 mi
11:53 PM
Wed, May 4
72 °FPartly cloudy.13 mph91%29.71 "Hg10 mi
10:53 PM71 °FLight rain. Passing clouds.16 mph87%29.70 "Hg10 mi
9:53 PM71 °FPartly cloudy.17 mph90%29.68 "Hg10 mi
8:53 PM70 °FPartly sunny.15 mph93%29.69 "Hg10 mi
7:53 PM71 °FPartly sunny.13 mph93%29.71 "Hg10 mi
6:59 PM70 °FLight rain. Partly sunny.14 mph90%29.72 "Hg10 mi
5:53 PM69 °FPartly sunny.6 mph87%29.74 "Hg10 mi
4:53 PM67 °FPartly sunny.9 mph97%29.77 "Hg10 mi
3:53 PM70 °FRain. Fog.12 mph84%29.82 "Hg3 mi
3:01 PM71 °FThunderstorms. Fog.6 mph87%29.82 "Hg5 mi
2:53 PM71 °FThunderstorms. Fog.5 mph90%29.82 "Hg2 mi
Weather by CustomWeather, © 2016

See weather overviewHow to use our weather pages